STARLINK-35045 (65439 NORAD) Tracking and Keplerian Element Data

This shows tracking and keplerian element data for the satellite.

Feedback or suggestion? Click here.




ElementValue
Catalog65439
NameSTARLINK-35045
Epoch Orbit1768
Epoch Day354.17105954
Epoch Year2025
RAAN206.0294
Inclination97.6017
Eccentricity0.0002262
Argument of Perigee61.6759
Mean Anonmoly298.4696
Mean Motion15.05650997
Decay Rate2.013E-05
L11 65439U 25194F 25354.17105954 .00002013 00000+0 14370-3 0 9992
L22 65439 97.6017 206.0294 0002262 61.6759 298.4696 15.05650997 17681



Live tracking and technical data element details for STARLINK-35045 (NORAD 65439). STARLINK-35045 can be tracked NOW for your location showing map with azimuth and elevation plus other details from your city location.







IsCatalogInMostPopularTable: catalog: 65439, numindb: 4
Update: records affected: 1



GetName: 65439 STARLINK-35045

Hit Count: updated at: Sun, 08 Feb 2026 07:19:18 GMT